Location: Prairie State College
(41.5244°N, 87.6382°W)
Time: 17:52:33
(UTC-05:00)

ARGOS Delta rocket - Visible Passes

Search period start: 19 April 2014 00:00
Search period end: 29 April 2014 00:00
Orbit: 637 x 842 km, 96.5° (Epoch: 19 April)

Date Brightness Start Highest point End Pass type
(mag) Time Alt. Az. Time Alt. Az. Time Alt. Az.
19 Apr 5.3 03:34:59 10° SE 03:39:03 35° ENE 03:43:18 10° N visible
19 Apr 4.9 05:14:24 10° SW 05:17:53 22° W 05:21:29 10° NW visible
20 Apr 6.6 02:52:56 10° E 02:55:14 14° ENE 02:57:36 10° NNE visible
20 Apr 3.7 04:29:16 12° S 04:33:20 62° W 04:38:01 10° NNW visible
21 Apr 4.7 03:44:48 10° SE 03:49:06 46° ENE 03:53:39 10° N visible
21 Apr 5.3 05:25:12 10° SW 05:28:08 17° W 05:31:11 10° NW visible
22 Apr 6.4 03:02:07 10° ESE 03:05:13 18° ENE 03:08:25 10° NNE visible
22 Apr 4.0 04:39:20 11° S 04:43:30 46° W 04:48:06 10° NNW visible
23 Apr 4.2 03:54:42 10° SSE 03:59:11 62° ENE 04:03:57 10° N visible
24 Apr 6.0 03:11:34 10° ESE 03:15:13 24° ENE 03:19:01 10° NNE visible
24 Apr 4.4 04:49:30 10° SSW 04:53:41 35° W 04:58:07 10° NNW visible
25 Apr 3.8 04:04:42 10° SSE 04:09:17 82° ENE 04:14:11 10° N visible
26 Apr 5.6 03:21:10 10° SE 03:25:14 31° ENE 03:29:30 10° N visible
26 Apr 4.8 04:59:58 10° SSW 05:03:55 27° W 05:08:04 10° NNW visible
27 Apr 6.7 02:39:30 10° E 02:41:29 13° ENE 02:43:31 10° NE visible
27 Apr 3.7 04:14:47 10° S 04:19:25 76° W 04:24:22 10° NNW visible
28 Apr 5.1 03:30:54 10° SE 03:35:16 40° ENE 03:39:54 10° N visible
28 Apr 5.1 05:10:36 10° SW 05:14:10 21° W 05:17:53 10° NW visible
